{"data":{"norad_id":42747,"epoch":"2026-09-19T18:54:32.667840Z","epoch_age_seconds":87223,"freshness":"FRESH","line1":"1 42747U 17031A   26262.78787810  .00000121  00000+0  00000+0 0  9992","line2":"2 42747   0.0385  97.8157 0003593  21.8771 210.5329  1.00272445 34098","mean_motion":1.00272445,"eccentricity":0.0003593,"inclination_deg":0.0385,"raan_deg":97.8157,"arg_perigee_deg":21.8771,"mean_anomaly_deg":210.5329,"bstar":0,"rev_number":3409,"period_min":1436.0874515426,"perigee_km":35771.260218531,"apogee_km":35801.559661962,"semimajor_km":42164.546940247,"source":"CELESTRAK","updated_at":"2026-09-20T09:00:35.254382Z"}}